{"data":{"norad_id":44881,"intl_designator":"2019-093C","name":"TIANYAN 01","alt_names":[],"object_type":"PAYLOAD","status":"ACTIVE","operator":null,"country":"PRC","launch_date":"2019-12-20","launch_site_code":"TAISC","launch_vehicle":null,"mission":null,"orbit_class":"UNKNOWN","rcs_meters":null,"size_class":null,"mass_kg":null,"dimensions":null,"purposes":["comms"],"wikipedia_slug":null,"has_3d_model":false,"image_url":null,"decayed_at":null,"tle_current":{"epoch":"2026-05-25T03:47:42.077760Z","epoch_age_seconds":55394,"freshness":"FRESH","line1":"1 44881U 19093C   26145.15812590  .00001044  00000+0  12400-3 0  9994","line2":"2 44881  97.7529 217.9513 0014069 157.0706 203.1141 14.86474737347995","mean_motion":14.86474737,"eccentricity":0.0014069,"inclination_deg":97.7529,"raan_deg":217.9513,"arg_perigee_deg":157.0706,"mean_anomaly_deg":203.1141,"bstar":0.000124,"rev_number":34799,"period_min":96.87349298019,"perigee_km":599.13060923735,"apogee_km":618.7909049062,"semimajor_km":6987.0977570718,"source":"CELESTRAK","updated_at":"2026-05-25T13:38:23.289727Z"}}}